Location: Peebles
(55.6412°N, 3.1714°W)
Time: 23:13:39
(UTC+00:00)

Cosmos 1538 Rocket - Visible Passes

Search period start: 27 January 2022 00:00
Search period end: 06 February 2022 00:00
Orbit: 753 x 791 km, 74.0° (Epoch: 27 January)

Date Brightness Start Highest point End Pass type
(mag) Time Alt. Az. Time Alt. Az. Time Alt. Az.
27 Jan 5.3 18:00:46 10° NNW 18:04:42 21° NE 18:06:42 17° ENE visible
27 Jan 4.1 19:42:34 10° NNW 19:47:05 63° N 19:47:05 63° N visible
27 Jan 6.4 21:25:23 10° NW 21:27:28 19° WNW 21:27:28 19° WNW visible
28 Jan 5.6 17:25:00 10° N 17:28:22 17° NNE 17:31:44 10° ENE visible
28 Jan 4.1 19:06:41 10° NNW 19:11:46 51° NE 19:12:23 48° E visible
28 Jan 5.6 20:49:06 10° NW 20:52:46 32° W 20:52:46 32° W visible
29 Jan 4.5 18:30:50 10° NNW 18:35:40 37° NE 18:37:48 26° E visible
29 Jan 4.6 20:12:59 10° NW 20:18:02 51° WSW 20:18:11 51° WSW visible
30 Jan 4.9 17:55:01 10° NNW 17:59:30 28° NE 18:03:22 13° E visible
30 Jan 4.0 19:36:59 10° NNW 19:42:11 76° WSW 19:43:46 45° S visible
30 Jan 6.5 21:20:34 10° WNW 21:23:29 15° W 21:24:11 15° WSW visible
31 Jan 5.2 17:19:13 10° NNW 17:23:14 22° NE 17:27:15 10° E visible
31 Jan 3.9 19:01:03 10° NNW 19:06:16 76° ENE 19:09:34 23° SE visible
31 Jan 6.1 20:43:54 10° NW 20:47:54 23° W 20:50:00 18° SW visible
01 Feb 4.1 18:25:09 10° NNW 18:30:16 53° NE 18:35:23 10° SE visible
01 Feb 5.5 20:07:36 10° NW 20:12:14 33° WSW 20:16:09 14° SSW visible
02 Feb 4.5 17:49:17 10° NNW 17:54:10 39° NE 17:59:03 10° ESE visible
02 Feb 4.9 19:31:28 10° NW 19:36:29 49° WSW 19:41:31 10° S visible
03 Feb 4.2 18:55:27 10° NNW 19:00:39 72° WSW 19:05:53 10° SSE visible
03 Feb 6.8 20:39:10 10° WNW 20:41:54 14° W 20:44:40 10° SW visible
04 Feb 3.9 18:19:30 10° NNW 18:24:45 80° ENE 18:30:00 10° SSE visible
04 Feb 6.4 20:02:26 10° NW 20:06:20 22° W 20:10:15 10° SSW visible
05 Feb 4.1 17:43:36 10° NNW 17:48:45 56° NE 17:53:55 10° SE visible
05 Feb 5.8 19:26:06 10° NW 19:30:41 32° WSW 19:35:17 10° SSW visible
